Location: Newark
(47.1042°N, 8.6744°E)
Time: 16:57:04
(UTC+00:00)

OTV 5 (USA 277) - Visible Passes

Search period start: 15 October 2019 00:00
Search period end: 25 October 2019 00:00
Orbit: 310 x 324 km, 54.5° (Epoch: 08 October)

Date Brightness Start Highest point End Pass type
(mag) Time Alt. Az. Time Alt. Az. Time Alt. Az.
15 Oct ? 03:53:05 21° N 03:53:17 21° NNE 03:55:29 10° ENE visible
16 Oct ? 04:07:19 25° N 04:08:04 30° NNE 04:10:33 10° E visible
17 Oct ? 04:21:37 29° NW 04:22:45 54° NNE 04:25:26 10° ESE visible
18 Oct ? 03:05:07 10° ENE 03:05:07 10° ENE 03:05:08 10° ENE visible
18 Oct ? 04:36:01 26° WNW 04:37:20 64° SW 04:40:02 10° SE visible
19 Oct ? 03:19:36 14° E 03:19:36 14° E 03:20:09 10° E visible
19 Oct ? 04:50:31 18° W 04:51:46 25° SW 04:54:06 10° SSE visible
20 Oct ? 03:34:14 16° ESE 03:34:14 16° ESE 03:34:54 10° ESE visible
20 Oct ? 05:05:11 10° WSW 05:06:04 11° SW 05:06:58 10° SSW visible
21 Oct ? 03:48:58 12° SSE 03:48:58 12° SSE 03:49:16 10° SSE visible
